This is the latest recevied weather packets stored in our database for station/object EA7BW-10. If no packets are shown the sender has not sent any weather packets the latest 10 day(s).
| Time | Temp. | Humidity | Pressure | Rain* | Wind** | Luminosity | Snow |
|---|---|---|---|---|---|---|---|
| 1777669392 | 22.78° C | 43% | 1012.9 hPa | - | - | - | - |
| 1777668192 | 22.78° C | 43% | 1012.9 hPa | - | - | - | - |
| 1777666992 | 23.33° C | 42% | 1012.7 hPa | - | - | - | - |
| 1777665792 | 23.89° C | 41% | 1012.2 hPa | - | - | - | - |
| 1777664604 | 25° C | 41% | 1011.9 hPa | - | - | - | - |
| 1777664592 | 25° C | 41% | 1011.9 hPa | - | - | - | - |
| 1777663392 | 25.56° C | 40% | 1011.6 hPa | - | - | - | - |
| 1777662192 | 26.67° C | 39% | 1011.4 hPa | - | - | - | - |
| 1777660991 | 27.22° C | 38% | 1011.2 hPa | - | - | - | - |
| 1777659791 | 28.89° C | 37% | 1011 hPa | - | - | - | - |
| 1777658591 | 29.44° C | 37% | 1011 hPa | - | - | - | - |
| 1777657391 | 30.56° C | 36% | 1010.9 hPa | - | - | - | - |
| 1777656192 | 30.56° C | 36% | 1010.9 hPa | - | - | - | - |
| 1777654991 | 32.22° C | 35% | 1011 hPa | - | - | - | - |
| 1777653791 | 32.22° C | 35% | 1010.9 hPa | - | - | - | - |
| 1777652594 | 32.78° C | 34% | 1010.9 hPa | - | - | - | - |
| 1777651391 | 33.33° C | 34% | 1010.8 hPa | - | - | - | - |
| 1777650190 | 33.89° C | 34% | 1010.7 hPa | - | - | - | - |
| 1777648989 | 33.33° C | 34% | 1010.9 hPa | - | - | - | - |
| 1777647789 | 33.89° C | 34% | 1011.1 hPa | - | - | - | - |
| 1777646589 | 33.33° C | 35% | 1011.3 hPa | - | - | - | - |
| 1777645389 | 33.89° C | 34% | 1011.5 hPa | - | - | - | - |
| 1777644189 | 33.33° C | 36% | 1011.7 hPa | - | - | - | - |
| 1777642989 | 32.78° C | 36% | 1011.8 hPa | - | - | - | - |
| 1777641789 | 33.89° C | 35% | 1012 hPa | - | - | - | - |
* Rain since midnight (hover to see other rain measurements)
** Current wind speed in m/s (hover to see current wind gust speed)